Location: Palo Alto
(37.4420°N, 122.1420°W)
Time: 00:02:48
(UTC-07:00)

Daily predictions for brighter satellites

Satellite Brightness Start Highest point End
(mag) Time Altitude Azimuth Time Altitude Azimuth Time Altitude Azimuth
Cosmos 2344 4.2 03:26:43 51° E 03:26:43 51° E 03:33:30 10° NE
Resurs 1-4 Rocket 4.2 03:38:21 10° NNE 03:40:10 22° NNE 03:40:10 22° NNE
Cosmos 2333 Rocket 4.2 03:43:29 10° N 03:48:12 26° ENE 03:52:51 10° ESE
ATLAS 2AS CENTAUR R/B 4.1 03:51:57 33° NNW 03:51:57 33° NNW 03:57:40 10° NNE
SL-16 R/B 4.3 04:19:32 19° NNW 04:19:32 19° NNW 04:21:08 10° NNW
Cosmos 2237 Rocket 3.7 04:10:29 10° N 04:15:35 34° ENE 04:20:39 10° SE
FALCON 9 R/B 4.4 04:14:24 20° SSE 04:16:50 24° SE 04:27:34 10° E
NOSS 3-2 (A) 4.5 04:14:01 10° NNW 04:21:25 58° NE 04:29:21 10° SE
RESURS DK-1 4.5 04:22:24 25° E 04:22:24 25° E 04:25:03 10° NE
ATLAS 5 CENTAUR R/B 3.7 04:19:14 10° NNW 04:24:51 38° NE 04:30:48 10° ESE
Gbstr 26 Del rocket 4.4 04:31:03 42° NW 04:33:56 80° NE 04:42:05 10° SE
Cosmos 1934 Rocket 4.2 04:34:14 10° NNW 04:39:10 53° NW 04:39:10 53° NW
Cosmos 1605 Rocket 3.9 04:35:34 10° N 04:41:44 87° E 04:47:58 10° S
USA 215 4.2 04:36:07 10° SSE 04:39:43 32° S 04:39:43 32° S
ADEOS II 3.9 04:38:01 10° NE 04:42:32 28° E 04:47:01 10° SSE
NOSS 0 Rocket 4.0 04:36:47 10° NNW 04:43:02 79° ENE 04:49:16 10° SSE
CZ-4C R/B 3.7 04:48:29 35° SSW 04:48:29 35° SSW 04:53:08 10° S
Cosmos 2227 Rocket 2.1 04:45:19 75° S 04:45:49 86° ESE 04:51:32 10° NNE
Lacrosse 5 1.8 04:48:06 79° NNE 04:48:06 79° NNE 04:52:53 10° NE
Cosmos 1025 Rocket 3.4 04:50:39 61° ESE 04:50:53 62° E 04:55:09 10° NNE
CZ-2D R/B 3.8 04:49:58 10° N 04:51:57 20° NNW 04:51:57 20° NNW
Okean O Rocket 2.1 04:50:02 10° N 04:53:27 52° N 04:53:27 52° N
Tiangong 1 3.4 04:57:01 23° NE 04:57:01 23° NE 04:58:21 10° ENE
Cosmos 2297 Rocket 2.3 04:53:33 44° S 04:55:23 74° ESE 05:01:02 10° NNE
Cosmos 2219 Rocket 2.0 04:49:50 10° NNW 04:55:30 70° WSW 05:01:07 10° SSE
NOSS 3-2 (C) 4.1 04:51:14 10° NNW 04:58:52 78° ENE 05:07:00 10° SE
CZ-2C R/B 3.5 04:59:35 68° S 05:00:10 86° WSW 05:04:49 10° NNW
Cosmos 2112 Rocket 4.3 04:56:28 10° NNW 05:01:45 66° ENE 05:06:57 10° SSE
CZ-4B R/B 3.0 04:58:08 10° NNE 05:02:33 89° WNW 05:02:56 75° SSW
Cosmos 1606 Rocket 4.1 04:59:58 10° N 05:04:17 56° E 05:08:32 10° SSE
ADEOS Rocket 3.4 04:58:30 10° NNE 05:05:41 73° ESE 05:12:04 10° S
Cosmos 1680 Rocket 3.5 05:01:24 10° NNW 05:06:43 86° ENE 05:11:58 10° SSE
Lacrosse 5 rocket 3.8 05:08:58 13° NNW 05:08:58 13° NNW 05:11:03 10° N
Delta 2 Rocket 3.3 05:11:07 62° SE 05:11:07 62° SE 05:14:18 10° E
CZ-4B DEB 4.1 05:05:44 10° N 05:11:14 80° WNW 05:14:18 27° SSW
Okean 2 3.8 05:12:04 17° S 05:15:12 64° E 05:19:20 10° NNE
Cosmos 1726 Rocket 3.9 05:11:20 10° N 05:15:42 64° E 05:20:00 10° SSE
Cosmos 2100 Rocket 4.2 05:12:38 10° N 05:18:53 73° E 05:25:09 10° SSE
PAYLOAD B 4.2 05:14:52 10° N 05:20:15 58° WNW 05:22:41 32° SW
NOSS 3-4 (A) 3.8 05:18:33 37° W 05:20:27 47° NW 05:26:45 10° NNE
NOSS 3-4 (C) 3.8 05:18:38 37° W 05:20:33 48° NW 05:26:52 10° NNE
IRS-1C Rocket 4.4 05:17:35 10° N 05:22:34 44° WNW 05:23:40 39° WSW
Cosmos 2298 Rocket 4.3 05:17:28 10° S 05:22:42 67° ESE 05:27:58 10° NNE
Resurs 1-4 Rocket 4.1 05:19:56 10° NNW 05:21:14 13° NW 05:21:14 13° NW
Cosmos 1892 Rocket 3.5 05:20:12 15° S 05:23:51 89° E 05:28:21 10° N
Cosmos 2082 3.9 05:23:42 38° WSW 05:25:15 47° WNW 05:30:40 10° N
Cosmos 220 Rocket 4.4 05:29:13 39° WNW 05:29:18 39° WNW 05:33:17 10° N
Thor Agena Rocket 3.5 05:25:41 10° S 05:30:57 77° WSW 05:36:17 10° NNW
Cosmos 2333 Rocket 2.5 05:27:16 10° NW 05:32:37 43° WSW 05:37:54 10° S
PSLV R/B 3.4 05:30:30 10° N 05:34:50 72° WNW 05:38:36 13° SSW
Cosmos 2150 Rocket 4.0 05:32:26 10° SSW 05:37:35 81° ESE 05:42:44 10° NNE
Cosmos 1666 2.7 05:42:14 10° NNW 05:46:02 54° W 05:49:46 10° S
Cosmos 2098 Rocket 3.5 05:44:22 10° N 05:48:14 65° E 05:53:09 10° SSE
OTV 4 0.7 05:49:23 38° SW 05:49:45 40° SSW 05:52:20 10° SE
Cosmos 1000 Rocket 4.5 05:43:52 10° SSW 05:50:09 67° W 05:56:28 10° N
Cosmos 2228 3.1 05:46:05 10° N 05:50:30 84° E 05:54:51 10° S
Hubble Space Telescope 2.9 05:52:14 12° SSW 05:53:01 12° SSW 05:54:46 10° S
CZ-4B R/B 4.0 05:50:09 10° N 05:54:47 30° WNW 05:58:08 16° WSW
Cosmos 2016 Rocket 4.0 05:49:27 10° N 05:55:50 86° W 06:02:06 10° S
Okean-O 2.7 05:51:44 10° N 05:56:03 52° WNW 06:00:21 10° SSW
DELTA 2 R/B (1) 3.6 05:52:30 21° WSW 05:56:21 86° SSE 06:01:58 10° ENE
Meteor 2-4 Rocket 4.2 05:51:58 10° SW 05:57:24 41° WNW 06:02:57 10° N
Cosmos 2237 Rocket 2.9 05:54:40 10° NW 05:59:31 30° WSW 06:04:20 10° SSW
RESURS DK-1 3.7 05:58:22 20° W 05:59:35 23° WNW 06:02:54 10° N
Cosmos 2173 Rocket 4.0 05:55:44 10° NNW 06:01:39 55° W 06:07:35 10° SSW
Cosmos 2058 Rocket 3.3 06:00:01 10° NNW 06:04:10 45° W 06:08:19 10° SSW
ATLAS 5 CENTAUR R/B 2.9 06:03:56 10° NW 06:09:37 39° WSW 06:15:35 10° S
Cosmos 2123 Rocket 4.0 06:03:49 10° S 06:10:00 85° W 06:16:12 10° N
Cosmos 1346 Rocket 4.0 06:08:06 15° WSW 06:10:04 21° WNW 06:13:11 10° NNW
Cosmos 1459 Rocket 4.3 06:05:00 10° NNW 06:11:01 45° W 06:16:57 10° SSW
Cosmos 1898 Rocket 3.8 06:06:10 10° SW 06:11:15 45° WNW 06:16:21 10° N
Meteor PRIRODA 4.4 06:11:11 10° N 06:14:31 31° WNW 06:17:49 10° SW
MOS 1 Rocket 3.5 06:10:50 10° N 06:15:32 58° WNW 06:20:31 10° SSW
COSMO-SKYMED 1 3.2 06:11:51 10° SSE 06:16:07 61° ENE 06:20:24 10° N
COBE Rocket 3.9 06:13:00 10° N 06:17:41 54° WNW 06:22:14 10° SSW
SL-16 R/B 2.4 06:13:12 10° NNW 06:18:40 51° WSW 06:24:07 10° S
Radarsat Rocket 4.3 06:11:58 10° NNE 06:18:46 84° ESE 06:24:49 10° SSW
ADEOS II 2.8 06:17:35 10° N 06:22:12 32° WNW 06:26:48 10° SW
CZ-4B R/B 4.1 06:20:30 10° N 06:24:15 43° WNW 06:27:49 10° SW
Cosmos 1937 Rocket 3.8 06:21:42 10° SW 06:26:41 46° WNW 06:31:45 10° N
NOAA 6 4.1 06:23:04 10° N 06:28:13 64° WNW 06:33:19 10° SSW
Cosmos 2227 Rocket 4.0 06:27:48 10° W 06:30:38 14° NW 06:33:28 10° NNW
Lacrosse 5 3.6 06:27:55 10° WNW 06:31:25 18° NNW 06:34:57 10° NNE
Tiangong 1 2.5 06:29:23 10° WNW 06:32:05 28° N 06:34:47 10° ENE
